Doylestown, PA

1:32 PM EDT on October 21, 2017 (GMT -0400)
Doylestown

Weather History for KDYL - December, 2013

Change the Weather History Date:

Wednesday, December 25, 2013

  Actual Average (KTTN) Record (KTTN)
Temperature  
Mean Temperature 20 °F -  
Max Temperature 25 °F 38 °F 69 °F (1889)
Min Temperature 16 °F 24 °F -2 °F (1983)
Degree Days  
Heating Degree Days 44    
Moisture  
Dew Point 9 °F    
Average Humidity 57    
Maximum Humidity 66    
Minimum Humidity 49    
Precipitation  
Precipitation 0.00 in - - ()
Sea Level Pressure  
Sea Level Pressure 30.49 in    
Wind  
Wind Speed 7 mph (NNW)    
Max Wind Speed 15 mph    
Max Gust Speed 22 mph    
Visibility 10 miles    
Events      
Averages and records for this station are not official NWS values.
T = Trace of Precipitation, MM = Missing Value Source: NWS Daily Summary

Daily Weather History Graph

Daily Weather History Graph

Search for Another Location

Airport or City:

Trip Planner

Search our weather history database for the weather conditions in past years. The results will help you decide how hot, cold, wet, or windy it might be!

Date:

Astronomy

Dec. 25, 2013 Rise Set
Actual Time 7:21 AM EST 4:39 PM EST
Civil Twilight 6:50 AM EST 5:10 PM EST
Nautical Twilight 6:16 AM EST 5:44 PM EST
Astronomical Twilight 5:43 AM EST 6:18 PM EST
Moon No Moon Rise 11:43 AM EST (12/25)
Length of Visible Light 10h 19m
Length of Day
9h 18m
Waning Gibbous, 49% of the Moon is Illuminated
Dec 25
Waning Gibbous
Jan 1
New
Jan 7
First Quarter
Jan 15
Full
Jan 24
Last Quarter

Hourly Weather History & Observations

Time (EST) Temp. Windchill Dew Point Humidity Pressure Visibility Wind Dir Wind Speed Gust Speed Precip Events Conditions
12:54 AM 23.0 °F 11.7 °F 12.0 °F 63% 30.40 in 10.0 mi NW 11.5 mph 16.1 mph N/A   Mostly Cloudy
1:54 AM 21.9 °F 13.4 °F 12.0 °F 66% 30.43 in 10.0 mi NNW 6.9 mph - N/A   Unknown
2:54 AM 21.0 °F 10.6 °F 8.1 °F 57% 30.45 in 10.0 mi NNW 9.2 mph - N/A   Clear
3:54 AM 19.9 °F 6.2 °F 6.1 °F 55% 30.47 in 10.0 mi NW 15.0 mph 21.9 mph N/A   Clear
4:54 AM 19.0 °F 9.0 °F 6.1 °F 57% 30.48 in 10.0 mi NNW 8.1 mph - N/A   Clear
5:54 AM 17.1 °F 7.6 °F 7.0 °F 65% 30.49 in 10.0 mi North 6.9 mph - N/A   Clear
6:54 AM 17.1 °F 8.7 °F 5.0 °F 59% 30.51 in 10.0 mi NNW 5.8 mph - N/A   Clear
7:54 AM 16.0 °F 7.4 °F 5.0 °F 62% 30.53 in 10.0 mi NNW 5.8 mph - N/A   Clear
8:54 AM 18.0 °F - 6.1 °F 60% 30.54 in 10.0 mi North - - N/A   Unknown
9:54 AM 19.9 °F 12.1 °F 7.0 °F 57% 30.56 in 10.0 mi Variable 5.8 mph - N/A   Clear
10:54 AM 21.0 °F 12.4 °F 7.0 °F 55% 30.55 in 10.0 mi WNW 6.9 mph - N/A   Clear
11:54 AM 23.0 °F 15.8 °F 8.1 °F 53% 30.53 in 10.0 mi NNW 5.8 mph - N/A   Clear
12:54 PM 24.1 °F 18.2 °F 8.1 °F 51% 30.51 in 10.0 mi Variable 4.6 mph - N/A   Clear
1:54 PM 25.0 °F - 8.1 °F 49% 30.50 in 10.0 mi Calm Calm - N/A   Clear
2:54 PM 25.0 °F - 8.1 °F 49% 30.50 in 10.0 mi Calm Calm - N/A   Clear
3:54 PM 25.0 °F - 8.1 °F 49% 30.51 in 10.0 mi Calm Calm - N/A   Clear
4:54 PM 24.1 °F - 8.1 °F 51% 30.50 in 10.0 mi Calm Calm - N/A   Clear
5:54 PM 25.0 °F - 10.0 °F 53% 30.51 in 10.0 mi Calm Calm - N/A   Clear
6:54 PM 25.0 °F - 10.9 °F 55% 30.50 in 10.0 mi Calm Calm - N/A   Clear
7:54 PM 24.1 °F - 12.0 °F 60% 30.49 in 10.0 mi Calm Calm - N/A   Clear
8:54 PM 25.0 °F 20.7 °F 12.0 °F 58% 30.48 in 10.0 mi SE 3.5 mph - N/A   Clear
9:54 PM 25.0 °F 19.3 °F 12.9 °F 60% 30.47 in 10.0 mi SSE 4.6 mph - N/A   Clear
10:54 PM 25.0 °F 19.3 °F 15.1 °F 66% 30.45 in 10.0 mi SSE 4.6 mph - N/A   Partly Cloudy
11:54 PM 25.0 °F 20.7 °F 15.1 °F 66% 30.43 in 10.0 mi SSE 3.5 mph - N/A   Partly Cloudy